Palmdale, CA

11:01 AM PDT on May 22, 2017 (GMT -0700)
Palmdale Af Plant 42

Weather History for KPMD - September, 2013

Change the Weather History Date:

Wednesday, September 11, 2013

  Actual Average Record
Temperature  
Mean Temperature 79 °F 75 °F  
Max Temperature 92 °F 92 °F 105 °F (1993)
Min Temperature 66 °F 59 °F 39 °F (1952)
Degree Days  
Heating Degree Days 0 0  
Month to date heating degree days 0 0  
Since 1 July heating degree days 0 0  
Cooling Degree Days 14 10  
Month to date cooling degree days 206 131  
Year to date cooling degree days 1971 1613  
Growing Degree Days 28 (Base 50)    
Moisture  
Dew Point 37 °F    
Average Humidity 28    
Maximum Humidity 42    
Minimum Humidity 14    
Precipitation  
Precipitation 0.00 in 0.01 in 0.23 in (1976)
Month to date precipitation 0.00 0.08  
Year to date precipitation 0.99 5.64  
Since 1 July precipitation 0.13  
Snow  
Snow 0.00 in - 0.00 in (1973)
Month to date snowfall 0.0  
Since 1 July snowfall 0.0  
Since 1 September snowfall 0.0  
Snow Depth 0.00 in    
Sea Level Pressure  
Sea Level Pressure 29.88 in    
Wind  
Wind Speed 12 mph (SW)    
Max Wind Speed 23 mph    
Max Gust Speed 26 mph    
Visibility 10 miles    
Events      
T = Trace of Precipitation, MM = Missing Value Source: NWS Daily Summary

Daily Weather History Graph

Daily Weather History Graph

Search for Another Location

Airport or City:

Trip Planner

Search our weather history database for the weather conditions in past years. The results will help you decide how hot, cold, wet, or windy it might be!

Date:

Astronomy

Sep. 11, 2013 Rise Set
Actual Time 6:32 AM PDT 7:04 PM PDT
Civil Twilight 6:07 AM PDT 7:29 PM PDT
Nautical Twilight 5:37 AM PDT 7:59 PM PDT
Astronomical Twilight 5:07 AM PDT 8:29 PM PDT
Moon 12:49 PM PDT (9/11) 11:20 PM PDT (9/11)
Length of Visible Light 13h 22m
Length of Day
12h 31m
Waxing Crescent, 40% of the Moon is Illuminated
Sep 11
Waxing Crescent
Sep 12
First Quarter
Sep 19
Full
Sep 26
Last Quarter
Oct 4
New

Hourly Weather History & Observations

Time (PDT) Temp. Dew Point Humidity Pressure Visibility Wind Dir Wind Speed Gust Speed Precip Events Conditions
12:53 AM 73.9 °F 37.0 °F 26% 29.85 in 10.0 mi SSW 13.8 mph - N/A   Clear
1:53 AM 73.9 °F 37.0 °F 26% 29.86 in 10.0 mi SW 15.0 mph - N/A   Clear
2:53 AM 72.0 °F 36.0 °F 27% 29.86 in 10.0 mi SW 3.5 mph - N/A   Clear
3:53 AM 70.0 °F 37.9 °F 31% 29.87 in 10.0 mi SSW 9.2 mph - N/A   Clear
4:53 AM 70.0 °F 37.0 °F 30% 29.88 in 10.0 mi SW 9.2 mph - N/A   Clear
5:53 AM 66.0 °F 39.9 °F 38% 29.90 in 10.0 mi SSW 6.9 mph - N/A   Clear
6:53 AM 66.9 °F 42.1 °F 40% 29.91 in 10.0 mi South 4.6 mph - N/A   Clear
7:53 AM 72.0 °F 41.0 °F 33% 29.91 in 10.0 mi South 4.6 mph - N/A   Clear
8:53 AM 81.0 °F 28.9 °F 15% 29.91 in 10.0 mi WSW 10.4 mph - N/A   Clear
9:53 AM 84.0 °F 30.0 °F 14% 29.91 in 10.0 mi SW 15.0 mph - N/A   Clear
10:53 AM 84.9 °F 35.1 °F 17% 29.91 in 10.0 mi SW 10.4 mph - N/A   Clear
11:53 AM 89.1 °F 36.0 °F 15% 29.89 in 10.0 mi WSW 12.7 mph 24.2 mph N/A   Clear
12:53 PM 88.0 °F 37.0 °F 16% 29.89 in 10.0 mi WSW 17.3 mph - N/A   Clear
1:53 PM 91.0 °F 37.0 °F 15% 29.87 in 10.0 mi WSW 18.4 mph 24.2 mph N/A   Clear
2:53 PM 91.0 °F 37.0 °F 15% 29.85 in 10.0 mi WSW 17.3 mph 24.2 mph N/A   Clear
3:53 PM 90.0 °F 39.9 °F 17% 29.85 in 10.0 mi WSW 21.9 mph - N/A   Clear
4:53 PM 88.0 °F 42.1 °F 20% 29.85 in 10.0 mi WSW 20.7 mph - N/A   Clear
5:53 PM 84.9 °F 42.1 °F 22% 29.87 in 10.0 mi WSW 17.3 mph 24.2 mph N/A   Clear
6:53 PM 80.1 °F 39.9 °F 24% 29.88 in 10.0 mi WSW 15.0 mph - N/A   Clear
7:53 PM 78.1 °F 37.9 °F 24% 29.89 in 10.0 mi WSW 15.0 mph - N/A   Clear
8:53 PM 77.0 °F 36.0 °F 23% 29.90 in 10.0 mi WSW 13.8 mph - N/A   Clear
9:53 PM 75.9 °F 28.9 °F 18% 29.89 in 10.0 mi WSW 11.5 mph - N/A   Clear
10:53 PM 75.0 °F 30.0 °F 19% 29.89 in 10.0 mi SSW 9.2 mph - N/A   Clear
11:53 PM 73.9 °F 32.0 °F 21% 29.89 in 10.0 mi SW 8.1 mph - N/A   Clear